CW2798 Aduanas ES current weather conditions

sailwx.info

Air temperature 17.2° C
Dewpoint 9.4° C

Last reported at 2014-Oct-25 07:45 UTC.
Time now 2014-Oct-25 08:51 UTC

Location: N 38°48' E 000°11'.
View on Google Maps.

See reports from other nearby stations

  
Tides and Currents Weather Stations Pressure Air Temp Water Temp Dewpoint Dewpoint Depression Visibility Wind Speed Wind Dir Waves Ship Positions
date/time (UTC)wind fromknots sea level pressurealtimeterstation pressurevisibilityair tempwater tempwave heightnotes
2014-Oct-25 07:45 17.2
2014-Oct-25 07:30 16.7
2014-Oct-25 07:00 15.6
2014-Oct-25 05:45 15.0
2014-Oct-25 05:15 15.0
2014-Oct-25 04:45 15.6
2014-Oct-25 04:15 15.6
2014-Oct-25 04:00 15.6
2014-Oct-24 16:15 239 3 gusting 4 24.4
2014-Oct-24 16:00 230 4 gusting 6 25.0
2014-Oct-24 15:45 217 4 gusting 7 25.6
2014-Oct-24 15:00 146 2 gusting 5 24.4
2014-Oct-24 14:45 156 0 gusting 4 24.4
2014-Oct-24 14:15 108 0 gusting 4 23.9
2014-Oct-24 14:00 093 23.9
2014-Oct-24 13:45 091 1 gusting 3 23.3
2014-Oct-24 13:15 093 0 gusting 1 23.9
2014-Oct-24 12:30 103 0 gusting 1 25.0
2014-Oct-24 12:15 124 0 gusting 5 25.0
2014-Oct-24 12:00 096 0 gusting 5 25.0
2014-Oct-24 11:45 111 1 gusting 5 25.0
2014-Oct-24 11:30 111 0 gusting 4 25.6
2014-Oct-24 11:00 088 1 gusting 4 25.6
2014-Oct-24 10:45 058 0 gusting 4 25.6
2014-Oct-24 10:30 046 1 gusting 4 25.0
2014-Oct-24 10:15 015 4 gusting 6 24.4
2014-Oct-24 09:45 043 4 gusting 6 24.4
2014-Oct-24 09:15 004 1 gusting 4 25.0
2014-Oct-24 09:00 001 2 gusting 2 24.4
2014-Oct-24 08:45 348 1 gusting 4 24.4
2014-Oct-24 08:30 351 1 gusting 3 23.9
2014-Oct-24 08:15 347 0 gusting 6 23.3
2014-Oct-24 08:00 347 18.3
2014-Oct-24 07:15 15.6
2014-Oct-24 07:00 16.1
2014-Oct-24 06:45 16.1
2014-Oct-24 06:30 15.6
2014-Oct-24 06:00 273 0 gusting 2 15.0
2014-Oct-24 05:45 15.0
2014-Oct-24 05:30 15.6
2014-Oct-24 05:15 15.0
2014-Oct-24 05:00 15.6
2014-Oct-24 04:45 15.0
2014-Oct-24 04:15 286 15.0
2014-Oct-24 03:45 14.4
2014-Oct-24 03:30 15.0
2014-Oct-24 03:15 15.0
2014-Oct-24 03:00 14.4
2014-Oct-24 02:30 15.6
2014-Oct-24 02:00 16.1
2014-Oct-24 01:00 16.1
2014-Oct-24 00:00 290 16.7
2014-Oct-23 23:15 18.3
2014-Oct-23 23:00 18.9
2014-Oct-23 22:30 314 1 gusting 3 18.9
2014-Oct-23 22:00 19.4
2014-Oct-23 21:45 293 0 gusting 3 19.4
2014-Oct-23 21:00 300 2 gusting 4 20.0
2014-Oct-23 20:45 300 0 gusting 2 20.0
2014-Oct-23 20:30 283 1 gusting 4 20.6
2014-Oct-23 19:45 286 3 gusting 8 20.6
2014-Oct-23 19:30 303 3 gusting 4 20.6
2014-Oct-23 19:15 304 1 gusting 4 20.6
2014-Oct-23 18:45 298 1 gusting 3 21.1
2014-Oct-23 18:30 294 2 gusting 3 21.1
2014-Oct-23 18:15 282 2 gusting 5 21.7
2014-Oct-23 18:00 292 1 gusting 5 21.7
2014-Oct-23 17:45 296 1 gusting 3 21.7
2014-Oct-23 16:45 268 0 gusting 5 23.3
2014-Oct-23 16:15 256 2 gusting 5 23.9
2014-Oct-23 16:00 230 4 gusting 7 23.9
2014-Oct-23 15:30 238 5 gusting 7 24.4
2014-Oct-23 15:00 241 6 gusting 10 24.4
2014-Oct-23 14:45 219 7 gusting 11 24.4
2014-Oct-23 14:30 223 6 gusting 9 25.0
2014-Oct-23 14:15 220 6 gusting 13 24.4
2014-Oct-23 13:30 219 6 gusting 11 25.0
2014-Oct-23 13:00 221 6 gusting 12 24.4
2014-Oct-23 12:45 223 6 gusting 10 24.4
2014-Oct-23 11:45 222 6 gusting 9 23.9
2014-Oct-23 11:30 247 4 gusting 7 23.9
2014-Oct-23 10:45 085 2 gusting 4 21.7
2014-Oct-23 10:30 075 2 gusting 5 21.7
2014-Oct-23 10:15 074 2 gusting 4 21.7
2014-Oct-23 10:00 096 21.7
2014-Oct-23 09:45 091 21.7
2014-Oct-23 09:15 21.7
2014-Oct-23 09:00 20.6
2014-Oct-23 08:45 20.0
2014-Oct-23 08:30 20.0
2014-Oct-23 08:15 18.9
2014-Oct-23 08:00 241 18.3